Regional Weather Roundup
Issued by NWS Pendleton, OR

Home | Current Version | Previous Version | Text Only | Print | Product List | Glossary On
Versions: 1 2 3 4 5 6 7 8 9 10 11 12 13 14 15 16 17 18 19 20 21 22 23 24 25 26 27 28 29 30 31 32 33 34 35 36 37 38 39 40 41 42 43 44 45 46 47 48 49 50
000
ASUS46 KPDT 182025
RWRPDT
PENDLETON REGIONAL WEATHER ROUNDUP
NATIONAL WEATHER SERVICE PENDLETON OREGON
1200 PM PST MON DEC 18 2017

NOTE: FAIR INDICATES FEW OR NO CLOUDS BELOW 12,000 FEET WITH NO
SIGNIFICANT WEATHER AND/OR OBSTRUCTIONS TO VISIBILITY.

# INDICATES UNOFFICIAL STATION AND DATA

WAZ520-182110-
EAST SLOPES OF WASHINGTON CASCADES

CITY            SKY/WX      TMP DP  RH  WIND    PRES   REMARKS
#BULLFROG       N/A         42  39  89  W9      N/A
#CLE ELUM HS    N/A         42  38  86  NW5     29.96R
#CLE ELUM LAKE  N/A         39  36  89  NW2     29.78R
#EASTON DOT     N/A         38  35  89  N2      N/A
#ELK HTS DOT    N/A         43  43  100 W3      N/A
#GLENWOOD       N/A         46  42  86  S5      30.06F
#NELSON 3SW     N/A         38  36  92  CALM    30.24R
#NILE           N/A         45  38  76  W3      29.31S
#TEANAWAY 4NE   N/A         46  39  76  W3      N/A
#TROUT LAKE 1NE N/A         45  41  86  NW10    30.08F
#TROUT LAKE 1E  N/A         46  41  83  W2      30.08F
$$

WAZ521-182110-
SIMCOE HIGHLANDS

CITY            SKY/WX      TMP DP  RH  WIND    PRES   REMARKS
#BICKLETON HS   N/A         42  39  89  W21     30.14F WCI 33
#CENTERVILLE 1SWN/A         44  38  79  W10     30.05F
#GOLDENDALE 1NE N/A         47  37  68  SW7     N/A
#GOLDENDALE 4W  N/A         46  34  63  SW17    30.09F WCI 39
#GOODNOE HILLS  N/A         52  42  69  W15     29.97F
#LYLE 6NE       N/A         45  44  96  S7      30.11F
#PITT 4SE       N/A         41  40  96  SW3     30.14F
$$

WAZ026-182110-
KITTITAS VALLEY

CITY            SKY/WX      TMP DP  RH  WIND    PRES   REMARKS
ELLENSBURG AP   MOCLDY      48  38  68  NW20    29.99R WCI 41
#ELLENSBURG CWU N/A         46  40  79  W3      29.99R
#ELLENSBURG 3NE N/A         46  40  79  N12     28.07R WCI 40
#ELLENSBURG 1E  N/A         46  40  79  W1      30.11R
#KITTITAS 3S    N/A         39  38  96  CALM    30.06R
#MANASTASH RDG  N/A         44  43  96  NW2     N/A
#ROCKY CYN DOT  N/A         45  39  79  NW14    N/A    WCI 39
#RYEGRASS DOT   N/A         43  36  76  W17     N/A    WCI 35
$$

WAZ027-182110-
YAKIMA VALLEY

CITY            SKY/WX      TMP DP  RH  WIND    PRES   REMARKS
SUNNYSIDE AP    CLOUDY      55  40  57  SW15    30.02F
YAKIMA AIRPORT  MOCLDY      52  39  61  CALM    30.01R
YAKIMA-VAGABOND MOCLDY      46  38  73  CALM    29.99S
#DONALD 2NE     N/A         58  23  26  N3      28.84F
#GRANDVIEW      N/A         55  40  57  W5      29.95S
#MABTON         N/A         56  45  66  S16     30.02R
#MOXEE 2E       N/A         47  N/A N/A E9      29.96F
#NACHES 2SW     N/A         45  42  89  CALM    29.99S
#OUTLOOK DOT    N/A         56  40  55  CALM    29.98S
#PARKER DOT     N/A         54  40  59  W2      30.00S
#TERRACE HTS    N/A         52  43  71  CALM    30.01S
#TOPPENISH      N/A         56  42  59  CALM    29.94S
#I82 S UMTANUM RN/A         50  34  54  CALM    N/A
#UNION GAP DOT  N/A         53  39  59  W1      30.04R
#W YAKIMA       N/A         46  40  79  N3      30.04S
#WHITE SWAN 5E  N/A         58  42  55  W5      30.02S
#WILEY CITY 3W  N/A         50  37  61  CALM    29.97R
#ZILLAH DOT     N/A         57  40  53  SW8     N/A
$$

WAZ028-182110-
LOWER COLUMBIA BASIN...WASHINGTON

CITY            SKY/WX      TMP DP  RH  WIND    PRES   REMARKS
HANFORD         CLOUDY      56  39  53  SW12    29.99S
PASCO           MOCLDY      54  42  64  SW20G25 30.04F
PROSSER AWOS    N/A         55  41  59  SW14    30.05F
RICHLAND AWOS   CLOUDY      56  44  64  S20G26  30.03S
#BENTON CITY    N/A         56  43  62  W3      29.94F
#CONNELL 5N     N/A         48  44  86  SW2     30.03S
#CONNELL 5NW    N/A         49  44  83  SW7     29.98S
#ELTOPIA 6NW    N/A         53  45  74  SW1     28.97F
#KAHLOTUS       N/A         48  42  80  W29     30.01S WCI 39
#KENNEWICK 3S   N/A         50  42  74  SW6     30.04S
#PATERSON       N/A         50  43  77  W8      30.04S
#PROSSER DOT    N/A         56  41  57  SW12    30.03S
#SAGEMOOR 2W    N/A         51  45  80  SW10    29.90F
#TOUCHET 2S     N/A         55  40  57  SW16    30.03S
#WEST PASCO     N/A         55  44  66  CALM    30.03F
$$

WAZ029-182110-
FOOTHILLS OF THE BLUES...WASHINGTON

CITY            SKY/WX      TMP DP  RH  WIND    PRES   REMARKS
WALLA WALLA AP  CLOUDY      55  38  53  S14     30.05F
#CLYDE 6NW      N/A         49  41  74  SW15    30.04F WCI 43
#DELANEY DOT    N/A         53  36  52  S13     30.05R
#LOWDEN 2SE     N/A         56  41  57  W7      30.02F
#PLEASANT VIEW 1N/A         45  40  82  S15     30.09S WCI 38
#PRESCOTT       N/A         53  41  64  CALM    30.05F
#WHITMAN COLLEGEN/A         55  40  57  SW8     30.03F
#WAITSBURG 5S   N/A         50  40  68  SW9     30.16F
#WAITSBURG 6SSE N/A         50  36  58  E10     30.02F
#WAITSBURG 8N   N/A         47  N/A N/A S13     29.79S WCI 41
#WALLA WALLA 5E N/A         52  43  71  SW13    N/A
#WHITMAN MISSIONN/A         57  42  57  SW8     30.07F
$$

WAZ030-182110-
BLUE MOUNTAINS...WASHINGTON

CITY            SKY/WX      TMP DP  RH  WIND    PRES   REMARKS
#DIXIE 5SE      N/A         45  35  68  SW15    29.97F WCI 38
$$

ORZ009-041-WAZ024-182110-
COLUMBIA RIVER GORGE

CITY            SKY/WX      TMP DP  RH  WIND    PRES   REMARKS
HOOD RIVER AP   CLOUDY      50  45  83  W9      30.09F
THE DALLES AP   CLOUDY      53  44  71  CALM    30.09F
#ARLINGTON AIRPON/A         51  44  77  W12     30.09S
#LYLE           N/A         52  47  83  W8      30.10F
#MARYHILL       N/A         48  43  83  CALM    N/A
#MURDOCK        N/A         53  47  80  NW8     30.05F
#SMITHVILLE     N/A         53  47  80  NW10    30.05F

$$

ORZ510-182110-
NORTH CENTRAL OREGON

CITY            SKY/WX      TMP DP  RH  WIND    PRES   REMARKS
#ANTELOPE       N/A         49  37  63  W13     30.06F WCI 44
#CHENOWITH 1W   N/A         45  43  93  W7      N/A
#DUFUR          N/A         51  43  74  SW9     30.07F
#DUFUR 9E       N/A         48  41  77  SW15    30.16F WCI 42
#GRASS VALLEY 1SN/A         50  41  71  SW16    30.08F
#MAUPIN SCHOOL  N/A         55  40  57  SW2     30.14F
#SHANIKO 4NW    N/A         42  35  76  SW5     30.08F
#WAPANITIA AIRPON/A         53  42  66  W15     30.12F
#WASCO 5NE      N/A         49  41  74  SW3     30.09F
$$

ORZ511-182110-
CENTRAL OREGON

CITY            SKY/WX      TMP DP  RH  WIND    PRES   REMARKS
BEND AIRPORT    MOCLDY      50  28  42  SW7     30.15F
PRINEVILLE AP   CLOUDY      46  30  53  NE5     30.15F
REDMOND AIRPORT MOCLDY      50  32  50  CALM    30.14F
#ASHWOOD SCHOOL N/A         54  37  52  S7      30.07F
#BEND 1SW       N/A         45  31  58  CALM    N/A
#BEND-AWBREY    N/A         47  33  58  SW6     30.16F
#BEND-KIM LN    N/A         39  32  76  CALM    30.15F
#CULVER         N/A         51  35  54  SE6     30.00F
#CULVER 8W      N/A         51  32  48  SW5     30.23F
#LAKE BILLY CHINN/A         51  N/A N/A W3      30.18F
#MADRAS 4S      N/A         52  11  19  SW10    30.22F
#POWELL BUTTE   N/A         50  27  41  W6      30.08F
#PRINEVILLE     N/A         47  33  58  CALM    30.29F
#PRINEVILLE 3N  N/A         44  35  70  CALM    30.21F
#WARM SPRINGS   N/A         50  39  66  CALM    29.99F

$$


ORZ509-182110-
EAST SLOPES OF OREGON CASCADES

CITY            SKY/WX      TMP DP  RH  WIND    PRES   REMARKS
SISTERS AWOS    N/A         52  36  54  SW10    N/A
#CAMP SHERMAN   N/A         49  36  61  N5      30.24F
#LA PINE 4NW    N/A         44  28  53  CALM    30.28F
#SISTERS 3N     N/A         52  34  50  W6      30.14F
#SUNRIVER       N/A         50  31  48  SE3     30.06F
#TUMALO 3W      N/A         44  30  58  CALM    30.05F

$$

ORZ044-182110-
LOWER COLUMBIA BASIN...OREGON

CITY            SKY/WX      TMP DP  RH  WIND    PRES   REMARKS
HERMISTON       CLOUDY      56  39  53  SW13    30.05F
#BOARDMAN SCHOOLN/A         53  43  69  SW8     30.06S
#BOARDMAN 8SW   N/A         52  45  77  W7      30.06F
#ECHO 8SW       N/A         55  39  55  W10     30.07S
#IONE SCHOOL    N/A         55  38  53  SW7     30.09F
#UMATILLA       N/A         54  40  59  W1      29.99F
$$

ORZ507-182110-
NORTHERN FOOTHILLS OF THE BLUES

CITY            SKY/WX      TMP DP  RH  WIND    PRES   REMARKS
PENDLETON AIRPT CLOUDY      53  37  54  SW13    30.06F
#ADAMS 3WNW     N/A         50  39  66  SW12    30.08F
#ATHENA         N/A         51  40  66  W6      30.10F
#CAYUSE         N/A         53  37  54  SW14    30.07F
#HELIX 3N       N/A         49  41  74  SW16    30.06F WCI 43
#HOLDMAN 5SE    N/A         52  42  69  SW12    30.05F
#HOLDMAN 6E     N/A         50  41  71  S13     29.89F
#M-F GROVE ELEM N/A         54  36  50  S2      30.04F
#M-FREEWATER 5SEN/A         54  38  55  SW7     30.06S
#PENDLETON DNTN N/A         55  32  41  SW5     30.01F
#PDT AQUATIC CTRN/A         53  35  50  S7      30.05S
#PDT SUNRIDGE   N/A         54  36  50  S7      30.09S
#PENDLETON 6SE  N/A         53  38  57  SW8     30.05F
#PENDLETON 7NW  N/A         51  41  68  SW2     32.40S
#PILOT ROCK     N/A         54  36  50  CALM    30.09S
#TUTUILLA       N/A         50  37  61  SW6     30.14F
#UMAPINE 2E     N/A         56  41  57  SW6     30.03F

$$

ORZ508-182110-
SOUTHERN FOOTHILLS OF THE BLUES

CITY            SKY/WX      TMP DP  RH  WIND    PRES   REMARKS
LEXINGTON       CLOUDY      54  37  52  SW22G29 30.10F
#AJAX           N/A         51  33  50  NW8     30.22S
#CONDON 5W      N/A         44  33  65  S15     30.06S WCI 37
#FOSSIL SCHOOL  N/A         50  36  58  SW8     30.04F
#HEPPNER EOC    N/A         52  37  56  SW10    30.02F
#HEPPNER 4NE    N/A         48  37  65  SW14    30.09F WCI 42
#LEXINGTON 2SE  N/A         56  39  53  CALM    30.05F
#MIKKALO        N/A         53  36  52  W15     30.16S
#OLEX 4N        N/A         55  42  61  SW18    30.05R
#RUGGS 5NE      N/A         49  34  56  SW9     30.23S
#RUGGS 2SW      N/A         50  37  61  SW15    30.10F

$$

ORZ502-503-182110-
BLUE MOUNTAINS

CITY            SKY/WX      TMP DP  RH  WIND    PRES   REMARKS
MEACHAM         CLOUDY      38  35  89  CALM    30.07F
#GRANITE        N/A         34  27  75  CALM    30.30F
#GREENHORN 9SW  N/A         32  28  85  CALM    30.17F
#LONG CREEK HS  N/A         45  34  65  W8      30.12F
#PIKES PEAK     N/A         44  33  65  SW33    27.99S WCI 33
#SUMMERVILLE 5NWN/A         38  32  79  CALM    30.16F
#TOLLGATE       N/A         33  32  96  S3      30.08S
#TROY SCHOOL    N/A         43  33  67  SW1     29.98F
#UKIAH          N/A         39  32  76  CALM    30.13F
#WESTON 4E      N/A         44  36  73  SW10    30.08F
$$

ORZ505-182110-
JOHN DAY BASIN

CITY            SKY/WX      TMP DP  RH  WIND    PRES   REMARKS
JOHN DAY        CLOUDY      40  34  79  E6      30.15F
#ANTELOPE 9ESE  N/A         46  34  63  E6      N/A
#DAYVILLE SCHOOLN/A         41  32  70  CALM    30.12F
#MITCHELL 8NW   N/A         49  31  50  SW8     30.20F
#MONUMENT HS    N/A         38  30  73  CALM    30.11F
#MT. VERNON 5SE N/A         45  32  60  S3      30.09F
#SPRAY SCHOOL   N/A         39  N/A N/A CALM    N/A
$$

ORZ506-182110-
OCHOCO AND JOHN DAY HIGHLANDS

CITY            SKY/WX      TMP DP  RH  WIND    PRES   REMARKS
#IZEE 6NW       N/A         42  33  70  CALM    N/A
#PINE MTN OBS   N/A         40  31  70  W1      N/A
#PRAIRIE CITY   N/A         37  33  85  CALM    30.31
#SENECA         N/A         33  N/A N/A CALM    N/A
#SENECA 9NW     N/A         34  29  82  CALM    30.29F
$$

ORZ049-182110-
GRANDE RONDE VALLEY

CITY            SKY/WX      TMP DP  RH  WIND    PRES   REMARKS
LA GRANDE       CLOUDY      38  25  59  S20G30  30.13F WCI 28
#COVE SCHOOL    N/A         40  30  67  E2      30.13S
#COVE 6NW       N/A         38  28  67  S6      30.20F
#ELGIN 3N       N/A         37  23  56  S18     30.06F WCI 27
#ELGIN 1E       N/A         39  27  62  S5      N/A
#IMBLER SCHOOL  N/A         36  27  69  S15     30.05F WCI 27
#ISLAND CITY 4N N/A         45  44  96  CALM    30.18F
#UNION 1S       N/A         38  27  64  E15     30.24F WCI 29
$$

ORZ050-182110-
WALLOWA COUNTY

CITY            SKY/WX      TMP DP  RH  WIND    PRES   REMARKS
JOSEPH AIRPORT  MOCLDY      39  28  64  W5      30.07R
#ENTERPRISE HS  N/A         41  33  73  CALM    30.09F
#IMNAHA SCHOOL  N/A         47  29  49  SE15    30.10F WCI 41
#IMNAHA 10S     N/A         43  28  55  S6      30.08F
#JOSEPH         N/A         40  25  55  SE2     30.55S
#JOSEPH 3N      N/A         37  28  70  E6      30.08F
#JOSEPH 3W      N/A         40  32  73  SW1     30.58S
#LOSTINE        N/A         37  31  79  CALM    30.01F
#LOSTINE 3SE    N/A         37  29  72  NE2     30.11F
#MT HOWARD 8000 N/A         31  25  78  W13     30.01S WCI 21
#PROMISE 1S     N/A         36  29  75  S10     30.23F
#WALLOWA SCHOOL N/A         35  30  82  CALM    30.04F



$$



USA.gov is the U.S. government's official web portal to all federal, state and local government web resources and services.